Regional Weather Roundup
Issued by NWS Cleveland, OH

Home | Current Version | Previous Version | Graphics & Text | Print | Product List | Glossary On
Versions: 1 2 3 4 5 6 7 8 9 10 11 12 13 14 15 16 17 18 19 20 21 22 23 24 25 26 27 28 29 30 31 32 33 34 35 36 37 38 39 40 41 42 43 44 45 46 47 48 49 50
000
ASUS41 KCLE 172300
RWRCLE
OHIO REGIONAL WEATHER ROUNDUP
NATIONAL WEATHER SERVICE WILMINGTON, OH
600 PM EST TUE JAN 17 2017

NOTE: "FAIR" INDICATES FEW OR NO CLOUDS BELOW 12,000 FEET WITH NO
SIGNIFICANT WEATHER AND/OR OBSTRUCTIONS TO VISIBILITY.

OHZ001>008-015>018-024>027-034-035-043-044-180000-
   NORTHWEST OHIO

CITY           SKY/WX    TMP DP  RH WIND       PRES   REMARKS
DEFIANCE       CLOUDY    44  40  85 W12G20    29.90R
FINDLAY        CLOUDY    47  42  83 W17       29.89R
TOLEDO EXPRESS CLOUDY    43  43 100 W17G25    29.87R
TOLEDO EXEC    CLOUDY    45  44  97 SW16G24   29.87R
LIMA           CLOUDY    46  44  93 W15       29.91R
$$

OHZ009>014-019>023-028>033-038-089-180000-
   NORTHEAST OHIO

CITY           SKY/WX    TMP DP  RH WIND       PRES   REMARKS
CLE-HOPKINS    CLOUDY    53  44  71 W16G24    29.86R
CLE-LAKEFRONT  CLOUDY    42  39  89 SW7       29.83S
CUY CO. ARPT   CLOUDY    48  32  53 W12       29.84R
LORAIN-ELYRIA  CLOUDY    51  43  74 W14       29.85R
ASHTABULA      NOT AVBL
AKRON-CANTON   CLOUDY    63  45  51 W8        29.85R
WOOSTER        NOT AVBL
MANSFIELD      CLOUDY    50  45  83 W13G22    29.88R
YOUNGSTOWN     MOCLDY    53  44  71 SW14G21   29.84R
$$

OHZ042-051>053-060>062-070>072-077>081-180000-
  SOUTHWEST OHIO

CITY           SKY/WX    TMP DP  RH WIND       PRES   REMARKS
CINC-COVINGTON CLOUDY    50  44  80 W18       29.98R
CINC-LUNKEN    CLOUDY    53  45  74 W12       29.99R
HAMILTON       CLOUDY    49  42  77 W13G20    30.00R
DAYTON         NOT AVBL
WRIGHT-PAT AFB CLOUDY    48  42  80 SW15      29.95R
DAYTON GENERAL CLOUDY    49  42  77 W12G20    29.96R
WILMINGTON     CLOUDY    51  44  77 W13G23    29.94R
$$

OHZ036-037-039>041-045>050-054>059-063>069-073>076-082>088-180000-
  CENTRAL AND SOUTHEAST OHIO

CITY           SKY/WX    TMP DP  RH WIND       PRES   REMARKS
COLUMBUS       CLOUDY    56  44  64 W14G25    29.90R
OSU AIRPORT    CLOUDY    52  47  83 W15       29.91R
BOLTON FIELD   CLOUDY    54  46  76 W9        29.92R
RICKENBACK AFB NOT AVBL
NEWARK         CLOUDY    56  47  71 W13       29.88R
MARION         CLOUDY    49  43  80 W9G20     29.91R
LANCASTER      FAIR      56  45  66 W9        29.92R
ZANESVILLE     FAIR      57  48  72 W9        29.89R
NEW PHILLY     CLOUDY    57  47  69 W7        29.88R
$$



USA.gov is the U.S. government's official web portal to all federal, state and local government web resources and services.